Location: Rumah Dana
(3.1167°N, 113.0167°E)
Time: 00:46:32
(UTC+00:00)

Daily predictions for brighter satellites

Satellite Brightness Start Highest point End
(mag) Time Altitude Azimuth Time Altitude Azimuth Time Altitude Azimuth
BLOCK DM-SL R/B 3.7 10:29:17 10° W 10:33:59 74° S 11:11:01 10° E
BLOCK DM-SL R/B 3.7 10:29:17 10° W 10:33:59 74° S 11:11:00 10° E
BLOCK DM-SL R/B 3.7 10:29:16 10° W 10:33:59 74° S 11:11:01 10° E
ARIANE 5 R/B 3.3 10:50:25 10° SW 10:53:54 43° SSE 11:07:57 10° E
SPELTRA 4.0 10:51:50 10° SW 10:55:09 28° S 10:58:39 10° ESE
SWIFT 1.9 10:52:32 10° WNW 10:55:45 51° NNE 10:59:00 10° E
Okean 1-7 3.0 10:52:00 10° S 10:56:09 85° W 11:00:15 10° N
Cosmos 1763 Rocket 3.8 10:51:37 10° S 10:56:32 45° ESE 11:01:24 10° NNE
Helios 1A Rocket 2.3 10:54:52 10° NNE 10:58:08 76° ESE 11:01:24 10° S
YAOGAN 1 3.1 10:54:41 10° SE 10:58:32 34° ENE 11:02:23 10° NNE
Cosmos 1656 4.2 10:53:55 10° N 10:58:49 34° ENE 11:03:41 10° SE
Cosmos 540 Rocket 3.9 10:55:00 10° S 10:59:46 40° ESE 11:04:30 10° NNE
SL-4 R/B 4.3 11:00:32 10° WNW 11:03:44 27° SW 11:06:49 10° S
CZ-3B Rocket 2.5 11:02:34 10° SW 11:05:59 37° SSE 11:10:11 10° E
SL-24 R/B - RUBIN 2 4.4 11:02:43 10° N 11:06:50 32° ENE 11:11:19 10° SE
BREEZE-M DEB (TANK) 1.6 11:04:09 10° NW 11:07:30 86° WSW 11:09:55 10° SE
OAO 2 Rocket 3.2 11:02:50 10° NW 11:07:39 67° NE 11:12:30 10° ESE
CZ-4 R/B 4.4 11:05:42 10° S 11:09:38 85° W 11:13:34 10° NNW
CZ-3C R/B 2.6 11:11:30 10° WNW 11:13:08 14° NNW 11:14:26 10° NNE
Spot 4 Rocket 4.2 11:10:33 10° SSE 11:15:26 47° ENE 11:20:19 10° N
Cosmos 44 3.0 11:13:02 10° SSW 11:17:19 75° ESE 11:21:48 10° NNE
USA 238 DEB 4.2 11:15:30 10° NNW 11:23:41 89° ENE 11:31:56 10° SSE
USA 238 4.2 11:15:37 10° NNW 11:23:48 88° ENE 11:32:03 10° SSE
GP-B 4.0 11:21:39 10° SE 11:25:19 27° E 11:28:43 11° NNE
USA 306 4.2 11:30:22 10° S 11:33:08 18° SE 11:33:51 17° ESE
OAO 3 Rocket 3.3 11:28:57 10° WNW 11:33:46 75° SW 11:38:33 10° SE
CARTOSAT-1 3.4 11:35:51 10° SSE 11:40:01 69° E 11:44:11 10° N
Cosmos 2082 Rocket 3.5 11:35:08 10° SW 11:40:20 40° WNW 11:45:32 10° N
ARIANE 5 DEB (SYLDA) 3.8 11:36:38 10° W 11:41:28 79° N 11:46:21 24° E
PSLV R/B 3.5 11:39:49 10° S 11:43:55 82° WSW 11:48:03 10° NNW
Resurs 01 Rocket 1.6 11:40:46 10° SSE 11:45:01 54° ENE 11:49:16 10° N
Cosmos 1535 Rocket 4.5 11:38:57 10° N 11:45:07 59° E 11:51:12 10° SSE
GPS 2-17 Rocket1 2.9 11:41:59 10° WNW 11:46:33 70° NNE 11:48:36 31° E
COSMOS 2406 3.3 11:46:45 10° SSW 11:52:24 76° WNW 11:57:41 12° N
